Date,TemperatureHighF,TemperatureAvgF,TemperatureLowF,DewpointHighF,DewpointAvgF,DewpointLowF,HumidityHigh,HumidityAvg,HumidityLow,PressureMaxIn,PressureMinIn,WindSpeedMaxMPH,WindSpeedAvgMPH,GustSpeedMaxMPH,PrecipitationSumIn
2013-1-1,57.6,53.4,45.7,49.7,45.0,42.9,95,73,60,30.15,30.06,8,0,8,0.00
2013-1-2,58.5,54.2,44.1,48.7,45.9,40.7,89,74,59,30.31,30.15,9,0,9,0.00
2013-1-3,60.4,54.7,46.0,47.0,44.9,42.1,90,70,52,30.41,30.32,12,1,12,0.00
2013-1-4,58.8,54.2,42.6,43.3,36.1,29.6,92,52,34,30.33,30.06,10,0,10,0.00
2013-1-5,57.7,53.2,45.3,38.8,33.5,27.4,73,48,34,30.06,29.79,14,0,14,0.00
2013-1-6,52.5,47.0,42.4,39.0,34.4,29.3,76,62,51,29.91,29.71,35,3,35,0.00
2013-1-7,53.1,48.0,38.1,29.6,23.7,16.9,61,39,34,30.01,29.85,24,4,24,0.00
2013-1-8,44.1,35.8,32.9,33.6,26.9,13.9,91,71,37,30.21,29.99,19,3,19,0.19
2013-1-9,45.9,42.1,33.1,29.4,19.1,12.0,66,41,32,30.24,30.15,8,1,8,0.00
2013-1-10,52.2,47.3,34.9,35.7,28.1,14.1,69,49,32,30.19,30.03,10,1,10,0.00
2013-1-11,61.7,55.6,46.2,52.1,47.3,34.8,94,74,54,30.03,29.81,16,0,16,0.07
2013-1-12,59.7,54.6,43.5,47.0,43.1,40.0,91,66,55,30.04,29.82,15,1,15,0.00
2013-1-13,57.6,52.2,42.4,43.3,39.6,34.2,85,63,43,30.23,30.04,9,1,9,0.00
2013-1-14,59.4,54.9,47.7,48.2,45.8,42.3,85,71,60,30.29,30.22,19,1,19,0.00
2013-1-15,60.4,58.0,47.1,53.4,49.2,45.1,94,73,61,30.26,30.02,25,4,25,0.04
2013-1-16,60.4,55.9,51.8,53.2,47.3,40.6,96,74,55,30.03,29.67,31,5,31,1.48
2013-1-17,59.7,57.3,45.5,51.0,47.1,40.4,87,69,56,29.79,29.66,27,5,27,0.00
2013-1-18,59.2,53.0,46.8,52.5,44.0,37.5,94,72,55,29.65,29.47,28,3,28,0.16
2013-1-19,56.1,53.1,42.8,42.3,37.6,34.9,87,56,46,29.87,29.54,22,2,25,0.00
2013-1-20,64.4,58.4,48.4,53.8,48.7,41.1,86,71,50,29.96,29.86,12,1,12,0.00
2013-1-21,65.8,60.9,51.3,54.4,47.1,33.5,89,63,32,29.92,29.66,28,5,28,0.00
2013-1-22,62.2,58.2,49.5,50.6,42.7,37.0,89,57,41,29.80,29.68,15,2,16,0.00
2013-1-23,59.9,56.4,52.2,43.1,39.7,36.8,68,54,44,29.97,29.81,23,1,23,0.00
2013-1-24,63.3,55.9,47.7,54.3,48.1,41.6,97,76,60,29.96,29.59,36,6,36,0.67
2013-1-25,59.4,53.7,43.5,50.7,45.4,39.0,91,74,53,29.67,29.50,34,6,34,0.55
2013-1-26,57.4,51.6,46.8,48.7,45.5,41.3,96,80,57,29.67,29.46,13,1,13,0.56
2013-1-27,54.5,50.5,46.0,45.8,39.8,35.6,95,67,52,29.94,29.66,16,2,16,0.00
2013-1-28,56.3,51.0,45.5,43.4,40.2,36.9,84,67,55,30.00,29.90,14,1,14,0.00
2013-1-29,52.7,49.6,42.6,44.1,41.1,38.3,89,73,60,30.10,30.00,14,2,14,0.00
2013-1-30,58.8,53.9,41.2,40.2,28.9,22.2,91,40,32,30.09,29.94,15,1,15,0.00
2013-1-31,59.9,54.4,43.2,43.3,38.5,27.6,73,55,38,30.01,29.84,23,2,23,0.00